Regional Weather Roundup
Issued by NWS Cleveland, OH

Home | Current Version | Previous Version | Graphics & Text | Print | Product List | Glossary On
Versions: 1 2 3 4 5 6 7 8 9 10 11 12 13 14 15 16 17 18 19 20 21 22 23 24 25 26 27 28 29 30 31 32 33 34 35 36 37 38 39 40 41 42 43 44 45 46 47 48 49 50
000
ASUS41 KCLE 260710
RWRCLE
OHIO REGIONAL WEATHER ROUNDUP
NATIONAL WEATHER SERVICE CLEVELAND, OH
300 AM EDT THU MAY 26 2016

NOTE: "FAIR" INDICATES FEW OR NO CLOUDS BELOW 12,000 FEET WITH NO
SIGNIFICANT WEATHER AND/OR OBSTRUCTIONS TO VISIBILITY.

OHZ001>008-015>018-024>027-034-035-043-044-260800-
   NORTHWEST OHIO

CITY           SKY/WX    TMP DP  RH WIND       PRES   REMARKS
DEFIANCE       CLOUDY    72  62  71 SW6       29.99F
FINDLAY        CLOUDY    69  60  73 S9        30.01S
TOLEDO EXPRESS CLOUDY    70  61  73 S8        29.99F
TOLEDO EXEC    MOCLDY    71  60  68 S8        30.00F
LIMA           CLOUDY    69  62  78 S6        30.03S
$$

OHZ009>014-019>023-028>033-038-089-260800-
   NORTHEAST OHIO

CITY           SKY/WX    TMP DP  RH WIND       PRES   REMARKS
CLE-HOPKINS    CLOUDY    72  58  61 S9        30.05S
CLE-LAKEFRONT  CLOUDY    72  57  59 S13       30.02S
CUY CO. ARPT   NOT AVBL
LORAIN-ELYRIA  CLOUDY    67  57  70 S8        30.03S
ASHTABULA      CLOUDY    67  57  70 SE5       30.06F
AKRON-CANTON   CLOUDY    67  56  67 S8        30.07F
WOOSTER        PTCLDY    65  58  78 S6        30.07S
MANSFIELD      PTCLDY    67  61  81 S10       30.06S
YOUNGSTOWN     CLOUDY    69  55  60 S7        30.08S
$$

OHZ042-051>053-060>062-070>072-077>081-260800-
  SOUTHWEST OHIO

CITY           SKY/WX    TMP DP  RH WIND       PRES   REMARKS
CINC-COVINGTON CLOUDY    68  63  84 S6        30.07S
CINC-LUNKEN    CLOUDY    65  63  93 CALM      30.08R
HAMILTON       CLOUDY    66  63  90 CALM      30.07R
DAYTON         PTCLDY    69  62  78 SW9       30.07R
WRIGHT-PAT AFB PTCLDY    69  65  88 S7        30.06R
DAYTON GENERAL CLOUDY    66  61  84 S5        30.06R
WILMINGTON     MOCLDY    65  62  90 SW6       30.07S
$$

OHZ036-037-039>041-045>050-054>059-063>069-073>076-082>088-260800-
  CENTRAL AND SOUTHEAST OHIO

CITY           SKY/WX    TMP DP  RH WIND       PRES   REMARKS
COLUMBUS       MOCLDY    67  61  81 S3        30.06S
OSU AIRPORT    NOT AVBL
BOLTON FIELD   PTCLDY    64  62  94 S6        30.07S
RICKENBACK AFB MOCLDY    66  61  84 S5        30.06S
NEWARK         PTCLDY    63  59  87 CALM      30.07R
MARION           N/A    N/A N/A N/A MISG      30.05S
LANCASTER      CLOUDY    67  61  81 S3        30.07S
ZANESVILLE     MOCLDY    69  61  75 S6        30.08R
NEW PHILLY     CLOUDY    70  58  65 SE3       30.08S
$$




USA.gov is the U.S. government's official web portal to all federal, state and local government web resources and services.